Location: ????????
(60.4333°N, 46.4710°E)
Time: 18:26:53
(UTC+00:00)

H-2A R/B - Pass Details

Date: 25 November 2020
Orbit: 578 x 654 km, 98.5° (Epoch: 16 January)

Event Time Altitude Azimuth Distance (km) Brightness Sun altitude
Exits shadow 16:13:54 16° 344° (NNW) 1,563 4.3 -29.5°
Maximum altitude 16:15:43 21° 310° (NW) 1,347 4.3 -29.7°
Drops below altitude 10° 16:18:51 10° 261° (W) 1,933 5.4 -30.1°
Sets 16:21:26 0° 246° (WSW) 2,843 6.2 -30.4°
